When you browse on this site, cookies collect data to enhance your experience and personalize the content and advertising you see.
Visit our Privacy Policy to learn more. By continuing to use the site, you agree to this use of cookies and data.
  • In Romania
  • List of Countries
  • For 7 days
  • Water Temperature
  • Satellite Maps
  • Weather Map
  • Weather Widgets
  • user-avatar
    Login

    Hourly Weather Zielenice

    Today, 19 May, Sunday

    Time Temperature Precipitation Wind Pressure Humidity
    00:00 +14°C° 0 mm 2 mps 733 mmHg 92%
    01:00 +13°C° 0 mm 1 mps 733 mmHg 93%
    02:00 +13°C° 0 mm 1 mps 733 mmHg 93%
    03:00 +12°C° 0 mm 1 mps 733 mmHg 94%
    04:00 +12°C° 0 mm 1 mps 733 mmHg 94%
    05:00 +13°C° 0 mm 1 mps 733 mmHg 90%
    06:00 +15°C° 0 mm 1 mps 733 mmHg 87%
    07:00 +16°C° 0 mm 2 mps 733 mmHg 84%
    08:00 +18°C° 0 mm 2 mps 733 mmHg 79%
    09:00 +20°C° 0 mm 2 mps 732 mmHg 73%
    10:00 +21°C° 0 mm 3 mps 732 mmHg 68%
    11:00 +22°C° 0.1 mm 3 mps 732 mmHg 66%
    12:00 +23°C° 0.1 mm 4 mps 732 mmHg 64%
    13:00 +25°C° 0.1 mm 4 mps 732 mmHg 61%
    14:00 +23°C° 0.7 mm 4 mps 732 mmHg 63%
    15:00 +23°C° 0.7 mm 5 mps 731 mmHg 66%
    16:00 +23°C° 0.7 mm 5 mps 731 mmHg 68%
    17:00 +22°C° 0.3 mm 5 mps 731 mmHg 72%
    18:00 +20°C° 0.3 mm 4 mps 731 mmHg 77%
    19:00 +19°C° 0.3 mm 4 mps 731 mmHg 82%
    20:00 +17°C° 0 mm 4 mps 731 mmHg 85%
    21:00 +16°C° 0 mm 3 mps 731 mmHg 87%
    22:00 +14°C° 0 mm 3 mps 731 mmHg 89%
    23:00 +15°C° 0 mm 2 mps 731 mmHg 90%

    Tomorrow, 20 May, Monday

    Time Temperature Precipitation Wind Pressure Humidity
    00:00 +14°C° 0 mm 2 mps 730 mmHg 90%
    01:00 +14°C° 0 mm 2 mps 730 mmHg 91%
    02:00 +14°C° 0 mm 2 mps 730 mmHg 91%
    03:00 +13°C° 0 mm 2 mps 730 mmHg 91%
    04:00 +13°C° 0 mm 2 mps 729 mmHg 92%
    05:00 +14°C° 0 mm 3 mps 729 mmHg 89%
    06:00 +15°C° 0 mm 4 mps 729 mmHg 87%
    07:00 +17°C° 0 mm 5 mps 730 mmHg 84%
    08:00 +19°C° 0 mm 5 mps 730 mmHg 79%
    09:00 +21°C° 0 mm 5 mps 730 mmHg 73%
    10:00 +23°C° 0 mm 5 mps 730 mmHg 68%
    11:00 +23°C° 0.4 mm 5 mps 730 mmHg 64%
    12:00 +25°C° 0.4 mm 4 mps 731 mmHg 61%
    13:00 +25°C° 0.4 mm 4 mps 731 mmHg 58%
    14:00 +25°C° 0.3 mm 4 mps 731 mmHg 59%
    15:00 +25°C° 0.3 mm 3 mps 731 mmHg 59%
    16:00 +25°C° 0.3 mm 3 mps 731 mmHg 60%
    17:00 +22°C° 0.1 mm 3 mps 731 mmHg 65%
    18:00 +20°C° 0.1 mm 3 mps 731 mmHg 70%
    19:00 +18°C° 0.1 mm 3 mps 731 mmHg 76%
    20:00 +17°C° 0 mm 2 mps 731 mmHg 76%
    21:00 +16°C° 0 mm 2 mps 731 mmHg 76%
    22:00 +16°C° 0 mm 2 mps 731 mmHg 76%
    23:00 +15°C° 0 mm 2 mps 731 mmHg 78%

    Day after tomorrow, 21 May, Tuesday

    Time Temperature Precipitation Wind Pressure Humidity
    00:00 +14°C° 0 mm 1 mps 731 mmHg 79%
    01:00 +14°C° 0 mm 1 mps 731 mmHg 80%
    02:00 +13°C° 0 mm 1 mps 731 mmHg 81%
    03:00 +13°C° 0 mm 1 mps 731 mmHg 81%
    04:00 +13°C° 0 mm 1 mps 731 mmHg 82%
    05:00 +14°C° 0 mm 1 mps 731 mmHg 79%
    06:00 +15°C° 0 mm 1 mps 731 mmHg 77%
    07:00 +15°C° 0 mm 0 mps 731 mmHg 74%
    08:00 +18°C° 0.1 mm 1 mps 731 mmHg 73%
    09:00 +17°C° 0.1 mm 2 mps 732 mmHg 72%
    10:00 +18°C° 0.1 mm 2 mps 732 mmHg 71%
    11:00 +18°C° 0.2 mm 2 mps 732 mmHg 70%
    12:00 +18°C° 0.2 mm 3 mps 732 mmHg 70%
    13:00 +18°C° 0.2 mm 3 mps 732 mmHg 69%
    14:00 +18°C° 0.1 mm 3 mps 732 mmHg 69%
    15:00 +18°C° 0.1 mm 3 mps 732 mmHg 69%
    16:00 +19°C° 0.1 mm 3 mps 732 mmHg 69%
    17:00 +18°C° 0.7 mm 2 mps 732 mmHg 73%
    18:00 +17°C° 0.7 mm 2 mps 732 mmHg 77%
    19:00 +16°C° 0.7 mm 1 mps 732 mmHg 81%
    20:00 +15°C° 0.1 mm 1 mps 732 mmHg 82%
    21:00 +14°C° 0.1 mm 1 mps 733 mmHg 83%
    22:00 +14°C° 0.1 mm 1 mps 733 mmHg 84%
    23:00 +14°C° 0.1 mm 1 mps 733 mmHg 86%

    22 May, Wednesday

    Time Temperature Precipitation Wind Pressure Humidity
    00:00 +13°C° 0.1 mm 1 mps 733 mmHg 88%
    01:00 +13°C° 0.1 mm 1 mps 733 mmHg 90%
    02:00 +13°C° 0.2 mm 1 mps 733 mmHg 91%
    03:00 +13°C° 0.2 mm 2 mps 733 mmHg 92%
    04:00 +12°C° 0.2 mm 2 mps 733 mmHg 93%
    05:00 +13°C° 0.2 mm 2 mps 733 mmHg 90%
    06:00 +14°C° 0.2 mm 2 mps 733 mmHg 88%
    07:00 +15°C° 0.2 mm 2 mps 733 mmHg 85%
    08:00 +16°C° 0.2 mm 2 mps 733 mmHg 81%
    09:00 +18°C° 0.2 mm 2 mps 733 mmHg 76%
    10:00 +19°C° 0.2 mm 3 mps 733 mmHg 72%
    11:00 +19°C° 1 mm 3 mps 733 mmHg 72%
    12:00 +20°C° 1 mm 3 mps 733 mmHg 72%
    13:00 +20°C° 1 mm 4 mps 733 mmHg 72%
    14:00 +19°C° 0.7 mm 4 mps 733 mmHg 74%
    15:00 +19°C° 0.7 mm 4 mps 733 mmHg 77%
    16:00 +19°C° 0.7 mm 4 mps 733 mmHg 79%
    17:00 +17°C° 0.6 mm 4 mps 733 mmHg 83%
    18:00 +16°C° 0.6 mm 3 mps 733 mmHg 87%
    19:00 +14°C° 0.6 mm 3 mps 733 mmHg 91%
    20:00 +14°C° 0.2 mm 3 mps 734 mmHg 92%
    21:00 +13°C° 0.2 mm 4 mps 734 mmHg 94%
    22:00 +13°C° 0.2 mm 4 mps 734 mmHg 95%
    23:00 +13°C° 0.1 mm 4 mps 734 mmHg 95%

    23 May, Thursday

    Time Temperature Precipitation Wind Pressure Humidity
    00:00 +12°C° 0.1 mm 4 mps 734 mmHg 94%
    01:00 +12°C° 0.1 mm 4 mps 734 mmHg 94%
    02:00 +12°C° 0 mm 3 mps 734 mmHg 94%
    03:00 +11°C° 0 mm 3 mps 734 mmHg 95%
    04:00 +11°C° 0 mm 3 mps 734 mmHg 95%
    05:00 +12°C° 0 mm 3 mps 734 mmHg 93%
    06:00 +13°C° 0 mm 3 mps 735 mmHg 91%
    07:00 +13°C° 0 mm 4 mps 735 mmHg 89%
    08:00 +14°C° 0.3 mm 3 mps 735 mmHg 89%
    09:00 +14°C° 0.3 mm 3 mps 735 mmHg 90%
    10:00 +14°C° 0.3 mm 3 mps 736 mmHg 90%
    11:00 +15°C° 0.7 mm 4 mps 736 mmHg 89%
    12:00 +15°C° 0.7 mm 5 mps 736 mmHg 89%
    13:00 +15°C° 0.7 mm 6 mps 736 mmHg 88%
    14:00 +14°C° 0.4 mm 6 mps 736 mmHg 90%
    15:00 +13°C° 0.4 mm 6 mps 736 mmHg 91%
    16:00 +11°C° 0.4 mm 6 mps 736 mmHg 93%
    17:00 +11°C° 0.3 mm 6 mps 736 mmHg 93%
    18:00 +10°C° 0.3 mm 6 mps 736 mmHg 93%
    19:00 +10°C° 0.3 mm 5 mps 737 mmHg 93%
    20:00 +10°C° 0.2 mm 5 mps 737 mmHg 93%
    21:00 +11°C° 0.2 mm 4 mps 737 mmHg 92%
    22:00 +11°C° 0.2 mm 4 mps 738 mmHg 91%
    23:00 +10°C° 0 mm 4 mps 738 mmHg 92%

    24 May, Friday

    Time Temperature Precipitation Wind Pressure Humidity
    00:00 +10°C° 0 mm 3 mps 738 mmHg 93%
    01:00 +9°C° 0 mm 3 mps 738 mmHg 93%
    02:00 +9°C° 0 mm 3 mps 738 mmHg 93%
    03:00 +9°C° 0 mm 2 mps 738 mmHg 93%
    04:00 +9°C° 0 mm 2 mps 738 mmHg 93%
    05:00 +10°C° 0 mm 2 mps 738 mmHg 90%
    06:00 +12°C° 0 mm 2 mps 738 mmHg 86%
    07:00 +13°C° 0 mm 2 mps 738 mmHg 82%
    08:00 +14°C° 0 mm 2 mps 737 mmHg 77%
    09:00 +15°C° 0 mm 2 mps 737 mmHg 71%
    10:00 +16°C° 0 mm 2 mps 736 mmHg 66%
    11:00 +17°C° 0 mm 2 mps 736 mmHg 63%
    12:00 +17°C° 0 mm 2 mps 735 mmHg 60%
    13:00 +19°C° 0 mm 1 mps 735 mmHg 57%
    14:00 +19°C° 0 mm 1 mps 734 mmHg 56%
    15:00 +20°C° 0 mm 1 mps 734 mmHg 56%
    16:00 +20°C° 0 mm 1 mps 733 mmHg 55%
    17:00 +19°C° 0 mm 1 mps 733 mmHg 60%
    18:00 +16°C° 0 mm 1 mps 733 mmHg 65%
    19:00 +15°C° 0 mm 1 mps 732 mmHg 70%
    20:00 +14°C° 0 mm 1 mps 732 mmHg 74%
    21:00 +12°C° 0 mm 0 mps 732 mmHg 77%
    22:00 +11°C° 0 mm 0 mps 732 mmHg 81%
    23:00 +11°C° 0 mm 1 mps 731 mmHg 83%
    Show more